DELTA 1 DEB, 18232

Orbit data source: Space-Track

DELTA 1 DEB, 18232 is space debris in SSO originally from a launch on Thu, 29 Jul 1976 UTC launched from the Air Force Western Test Range (AFWTR). Debris objects in space refer to the collection of defunct objects orbiting the Earth. Examples of debris include non-operational satellites, rocket bodies, and fragments generated from explosions, collisions, or faulty payload assembly.

Loading next visibility...
Identifier
18232, 1976-077EY
Orbit
SSO
Country
Flag of USUS
Related business
Manufacturer
Unknown
Mission
Spacecraft
Bus & Motor
Unknown
Mass
Unknown
Launch date (UTC)
1976-07-29 (49 years ago)
Launch vehicle
Unknown
Launch site
Air Force Western Test Range (AFWTR)
Object type
Payload
Rocket body
Debris
Shape & HBR
Unknown shape, 0.1 m
Radar Cross Section
Small (<0.1 m²)

Expand to show TLE details & history
Last TLE update: 14 hours ago

TLE from 14 hours ago
0 DELTA 1 DEB
1 18232U 76077EY  25291.70748763  .00038010  00000-0  23587-1 0  9992
2 18232 102.9313  70.6113 0223986 191.6268 298.9774 13.93280775994315
Epoch: 2025-10-18T16:58Z
TLE epoch observation values (Epoch: 2025-10-18T16:58:46.931Z)
Latitude
49.97195°
Longitude
-15.74065°
Altitude
848.566 km
Speed
7.472 km/s
True Right ascension
17h 45m 33s
True Declination
49° 48' 17"
Sunlit
Object was in daylight at epoch
Visualization orbit readout
Latitude
Unknown
Longitude
Unknown
Altitude
Unknown
Speed
Unknown
Apparent Right ascension
Unknown
Apparent Declination
Unknown
Sunlit
N/A
Visualization observer readout
Local Sidereal Time
01:39:32
Azimuth
Unknown
Elevation
Unknown
Doppler factor
Unknown
Orbital elements
Apogee altitude
1,077.941 km
Perigee altitude
751.247 km
Semi-major axis
7,292.731 km
Eccentricity
0.0224
Inclination
102.9313°
RAAN
70.6113°
Arg. of periapsis
191.6268°
True anomaly
296.70177°
Mean anomaly
298.9774°
Eccentric anomaly
297.84262°
Mean motion
3.48504 °/min
Orbital period
103.3 mins
BSTAR
0.023587
Loading maneuver chart data...
Computing Atmospheric mass density...
Loading historical data...
Loading historical data...
Loading historical data...
Loading historical data...
Loading historical data...
Loading historical data...
Loading historical data...

Documentation

Showing up to 5 results
|